AFL149 EYVI-UUEE

Flight info

Callsign AFL149
Flight time 1h 23m
Altitude 39000
Route K0811F390 LAFAT1A LAFAT L29 BENIM M997 RATIN L999 AGLAN M864 DIPOP DIPOP3F
Aircraft A321/M-SDE3FGHIRWY/LB1

Departure

Time 2026-05-05 08:49
Airport Vilnius International Airport (EYVI)

Arrival

Time 2026-05-05 10:12
Airport Sheremetyevo International Airport (UUEE)
Time Latitude Longitude Altitude Speed Heading
2026-05-05 08:16 54.64258 25.28460 642 ft 0 kts 182°
2026-05-05 08:34 54.64263 25.28460 641 ft 4 kts 182°
2026-05-05 08:34 54.64276 25.28461 643 ft 0 kts 182°
2026-05-05 08:40 54.64268 25.28460 644 ft 2 kts 182°
2026-05-05 08:40 54.64259 25.28459 643 ft 0 kts 182°
2026-05-05 08:40 54.64258 25.28459 642 ft 1 kts 182°
2026-05-05 08:41 54.64243 25.28460 641 ft 4 kts 177°
2026-05-05 08:41 54.64220 25.28497 640 ft 6 kts 109°
2026-05-05 08:41 54.64217 25.28578 641 ft 8 kts 93°
2026-05-05 08:41 54.64181 25.28653 640 ft 10 kts 158°
2026-05-05 08:42 54.64094 25.28679 647 ft 15 kts 172°
2026-05-05 08:42 54.63970 25.28708 642 ft 21 kts 173°
2026-05-05 08:42 54.63837 25.28736 635 ft 0 kts 173°
2026-05-05 08:43 54.63830 25.28737 636 ft 3 kts 173°
2026-05-05 08:43 54.63790 25.28745 635 ft 9 kts 173°
2026-05-05 08:43 54.63766 25.28750 633 ft 2 kts 173°
2026-05-05 08:43 54.63739 25.28753 636 ft 6 kts 180°
2026-05-05 08:44 54.63720 25.28749 637 ft 2 kts 190°
2026-05-05 08:44 54.63711 25.28744 637 ft 0 kts 198°
2026-05-05 08:44 54.63707 25.28736 638 ft 2 kts 223°
2026-05-05 08:44 54.63697 25.28695 633 ft 6 kts 253°
2026-05-05 08:45 54.63685 25.28604 632 ft 0 kts 260°
2026-05-05 08:45 54.63685 25.28599 631 ft 2 kts 260°
2026-05-05 08:45 54.63679 25.28543 629 ft 8 kts 260°
2026-05-05 08:45 54.63667 25.28422 630 ft 13 kts 257°
2026-05-05 08:46 54.63587 25.28367 633 ft 16 kts 168°
2026-05-05 08:46 54.63470 25.28304 625 ft 21 kts 201°
2026-05-05 08:46 54.63319 25.28194 630 ft 27 kts 202°
2026-05-05 08:46 54.63130 25.28059 624 ft 32 kts 203°
2026-05-05 08:47 54.62987 25.28061 619 ft 9 kts 101°
2026-05-05 08:47 54.62976 25.28158 614 ft 0 kts 111°
2026-05-05 08:47 54.62975 25.28160 615 ft 1 kts 112°
2026-05-05 08:47 54.62969 25.28188 619 ft 4 kts 107°
2026-05-05 08:48 54.62971 25.28249 611 ft 6 kts 67°
2026-05-05 08:48 54.63006 25.28294 616 ft 7 kts 20°
2026-05-05 08:48 54.63056 25.28326 613 ft 10 kts 21°
2026-05-05 08:48 54.63345 25.28523 622 ft 100 kts 21°
2026-05-05 08:49 54.64280 25.29105 944 ft 165 kts 18°
2026-05-05 08:49 54.65405 25.29839 1979 ft 182 kts 17°
2026-05-05 08:49 54.66666 25.30713 3000 ft 210 kts 19°
2026-05-05 08:49 54.68106 25.31724 4140 ft 236 kts 19°
2026-05-05 08:50 54.69685 25.32837 5042 ft 253 kts 18°
2026-05-05 08:50 54.71338 25.34009 6013 ft 260 kts 17°
2026-05-05 08:50 54.73029 25.35395 6816 ft 284 kts 31°
2026-05-05 08:50 54.74366 25.38051 7550 ft 304 kts 63°
2026-05-05 08:51 54.75171 25.41483 8560 ft 311 kts 69°
2026-05-05 08:51 54.75946 25.45025 9589 ft 318 kts 69°
2026-05-05 08:51 54.76738 25.48674 10358 ft 333 kts 69°
2026-05-05 08:51 54.77584 25.52560 10806 ft 356 kts 69°
2026-05-05 08:52 54.78475 25.56629 11584 ft 365 kts 69°
2026-05-05 08:52 54.79386 25.60771 12556 ft 370 kts 69°
2026-05-05 08:52 54.80306 25.64967 13527 ft 375 kts 69°
2026-05-05 08:52 54.81234 25.69216 14402 ft 379 kts 69°
2026-05-05 08:53 54.82172 25.73517 15245 ft 384 kts 69°
2026-05-05 08:53 54.83099 25.77900 16068 ft 389 kts 72°
2026-05-05 08:53 54.83772 25.82480 16881 ft 394 kts 76°
2026-05-05 08:53 54.84418 25.87121 17741 ft 398 kts 76°
2026-05-05 08:54 54.85073 25.91816 18549 ft 403 kts 76°
2026-05-05 08:54 54.85736 25.96578 19240 ft 409 kts 76°
2026-05-05 08:54 54.86399 26.01339 19938 ft 413 kts 76°
2026-05-05 08:54 54.87076 26.06209 20667 ft 418 kts 76°
2026-05-05 08:55 54.87765 26.11200 20945 ft 435 kts 76°
2026-05-05 08:55 54.88478 26.16406 21204 ft 449 kts 76°
2026-05-05 08:55 54.89203 26.21729 21743 ft 455 kts 76°
2026-05-05 08:55 54.89937 26.27109 22314 ft 462 kts 76°
2026-05-05 08:56 54.90692 26.32642 22495 ft 477 kts 76°
2026-05-05 08:56 54.91456 26.38263 23183 ft 473 kts 76°
2026-05-05 08:56 54.92192 26.43710 24174 ft 454 kts 76°
2026-05-05 08:56 54.92904 26.49004 24753 ft 448 kts 76°
2026-05-05 08:57 54.93610 26.54265 25099 ft 447 kts 76°
2026-05-05 08:57 54.94314 26.59524 25397 ft 447 kts 76°
2026-05-05 08:57 54.95020 26.64808 25661 ft 449 kts 76°
2026-05-05 08:57 54.95726 26.70125 26091 ft 453 kts 77°
2026-05-05 08:58 54.96431 26.75486 26599 ft 457 kts 77°
2026-05-05 08:58 54.97144 26.80916 27132 ft 461 kts 77°
2026-05-05 08:58 54.97860 26.86362 27734 ft 463 kts 77°
2026-05-05 08:58 54.98573 26.91822 28466 ft 461 kts 77°
2026-05-05 08:59 54.99282 26.97261 29214 ft 460 kts 77°
2026-05-05 08:59 54.99987 27.02675 29976 ft 457 kts 77°
2026-05-05 08:59 55.00690 27.08122 30256 ft 467 kts 77°
2026-05-05 08:59 55.01409 27.13715 30385 ft 478 kts 77°
2026-05-05 09:00 55.02141 27.19420 30652 ft 485 kts 77°
2026-05-05 09:00 55.02878 27.25188 31026 ft 489 kts 77°
2026-05-05 09:00 55.03615 27.30969 31607 ft 487 kts 77°
2026-05-05 09:00 55.04343 27.36721 32216 ft 486 kts 77°
2026-05-05 09:01 55.05069 27.42480 32796 ft 485 kts 77°
2026-05-05 09:01 55.05788 27.48222 33410 ft 485 kts 76°
2026-05-05 09:01 55.06500 27.53999 33874 ft 487 kts 76°
2026-05-05 09:01 55.07204 27.59773 34315 ft 487 kts 77°
2026-05-05 09:02 55.07904 27.65558 34840 ft 486 kts 77°
2026-05-05 09:02 55.08601 27.71318 35356 ft 484 kts 77°
2026-05-05 09:02 55.09294 27.77056 35900 ft 482 kts 77°
2026-05-05 09:02 55.09981 27.82772 36431 ft 480 kts 78°
2026-05-05 09:03 55.10661 27.88470 36812 ft 479 kts 78°
2026-05-05 09:03 55.12010 27.99845 36894 ft 477 kts 78°
2026-05-05 09:04 55.13347 28.11110 36897 ft 476 kts 78°
2026-05-05 09:04 55.14640 28.22461 36898 ft 476 kts 82°
2026-05-05 09:05 55.15367 28.33973 36894 ft 477 kts 84°
2026-05-05 09:05 55.16070 28.45534 36895 ft 478 kts 84°
2026-05-05 09:06 55.16750 28.57093 36891 ft 478 kts 84°
2026-05-05 09:06 55.17420 28.68662 36889 ft 477 kts 84°
2026-05-05 09:07 55.18084 28.80216 36885 ft 477 kts 84°
2026-05-05 09:07 55.18733 28.91772 36887 ft 477 kts 85°
2026-05-05 09:08 55.19364 29.03274 36882 ft 469 kts 85°
2026-05-05 09:08 55.19981 29.14572 36884 ft 464 kts 85°
2026-05-05 09:09 55.20589 29.25750 36881 ft 459 kts 85°
2026-05-05 09:09 55.21169 29.36870 36891 ft 457 kts 85°
2026-05-05 09:10 55.21727 29.47896 36875 ft 457 kts 85°
2026-05-05 09:10 55.22293 29.58977 36881 ft 457 kts 85°
2026-05-05 09:11 55.22848 29.70054 36881 ft 457 kts 85°
2026-05-05 09:11 55.23392 29.81140 36874 ft 457 kts 85°
2026-05-05 09:12 55.23918 29.92162 36895 ft 452 kts 85°
2026-05-05 09:12 55.24434 30.03118 36894 ft 450 kts 85°
2026-05-05 09:13 55.24938 30.14028 36892 ft 449 kts 86°
2026-05-05 09:13 55.25432 30.24966 36891 ft 451 kts 86°
2026-05-05 09:14 55.25924 30.36131 36897 ft 469 kts 86°
2026-05-05 09:14 55.26422 30.47608 36898 ft 474 kts 86°
2026-05-05 09:15 55.26908 30.59138 36884 ft 474 kts 86°
2026-05-05 09:15 55.27381 30.70650 36886 ft 470 kts 86°
2026-05-05 09:16 55.27763 30.80130 36887 ft 468 kts 86°
2026-05-05 09:16 55.28371 30.87601 36885 ft 467 kts 75°
2026-05-05 09:16 55.29325 30.93035 36887 ft 466 kts 70°
2026-05-05 09:17 55.31406 31.03829 36896 ft 468 kts 70°
2026-05-05 09:17 55.33134 31.12906 36893 ft 469 kts 70°
2026-05-05 09:18 55.35190 31.23779 36882 ft 469 kts 71°
2026-05-05 09:18 55.37234 31.34672 36882 ft 469 kts 71°
2026-05-05 09:19 55.39274 31.45583 36873 ft 470 kts 71°
2026-05-05 09:19 55.41290 31.56420 36889 ft 469 kts 71°
2026-05-05 09:20 55.43303 31.67325 36913 ft 468 kts 71°
2026-05-05 09:20 55.45306 31.78225 36904 ft 468 kts 71°
2026-05-05 09:21 55.47297 31.89138 36903 ft 468 kts 71°
2026-05-05 09:21 55.49285 32.00064 36894 ft 468 kts 71°
2026-05-05 09:22 55.51262 32.10984 36890 ft 468 kts 71°
2026-05-05 09:22 55.53224 32.21935 36893 ft 467 kts 72°
2026-05-05 09:23 55.55178 32.32903 36850 ft 470 kts 72°
2026-05-05 09:23 55.57128 32.43944 36850 ft 472 kts 72°
2026-05-05 09:24 55.59088 32.55047 36854 ft 474 kts 72°
2026-05-05 09:24 55.61044 32.66192 36876 ft 475 kts 72°
2026-05-05 09:25 55.62989 32.77368 36865 ft 476 kts 72°
2026-05-05 09:25 55.64926 32.88582 36880 ft 476 kts 72°
2026-05-05 09:26 55.66858 32.99802 36896 ft 476 kts 72°
2026-05-05 09:26 55.68780 33.11041 36875 ft 477 kts 73°
2026-05-05 09:27 55.70673 33.22238 36865 ft 477 kts 73°
2026-05-05 09:27 55.72568 33.33501 36881 ft 473 kts 73°
2026-05-05 09:28 55.74428 33.44572 36874 ft 466 kts 73°
2026-05-05 09:28 55.76268 33.55585 36884 ft 465 kts 73°
2026-05-05 09:29 55.78088 33.66608 36865 ft 464 kts 73°
2026-05-05 09:29 55.79872 33.77505 36871 ft 456 kts 73°
2026-05-05 09:30 55.81642 33.88329 36868 ft 455 kts 73°
2026-05-05 09:30 55.83400 33.99123 36869 ft 451 kts 73°
2026-05-05 09:31 55.85097 34.09671 36870 ft 439 kts 74°
2026-05-05 09:31 55.86763 34.20095 36625 ft 436 kts 74°
2026-05-05 09:31 55.87583 34.25228 36046 ft 437 kts 74°
2026-05-05 09:32 55.88417 34.30448 35439 ft 439 kts 74°
2026-05-05 09:32 55.89088 34.35763 34803 ft 441 kts 82°
2026-05-05 09:32 55.89345 34.41210 34186 ft 443 kts 89°
2026-05-05 09:32 55.89440 34.46710 33486 ft 446 kts 89°
2026-05-05 09:33 55.89541 34.52252 32769 ft 448 kts 89°
2026-05-05 09:33 55.89647 34.57812 32064 ft 450 kts 89°
2026-05-05 09:33 55.89754 34.63395 31446 ft 450 kts 89°
2026-05-05 09:33 55.89860 34.68946 30933 ft 447 kts 89°
2026-05-05 09:34 55.89957 34.74484 30419 ft 444 kts 89°
2026-05-05 09:34 55.90047 34.79966 29912 ft 441 kts 89°
2026-05-05 09:34 55.90135 34.85415 29331 ft 438 kts 89°
2026-05-05 09:34 55.90222 34.90795 28887 ft 432 kts 89°
2026-05-05 09:35 55.90302 34.96125 28079 ft 434 kts 89°
2026-05-05 09:35 55.90457 35.06851 26625 ft 427 kts 89°
2026-05-05 09:35 55.90537 35.12116 25939 ft 422 kts 89°
2026-05-05 09:36 55.90616 35.17321 25292 ft 418 kts 89°
2026-05-05 09:36 55.90693 35.22478 24588 ft 415 kts 89°
2026-05-05 09:36 55.90765 35.27615 23928 ft 412 kts 89°
2026-05-05 09:36 55.90831 35.32689 23285 ft 408 kts 89°
2026-05-05 09:37 55.90895 35.37663 22576 ft 404 kts 89°
2026-05-05 09:37 55.90958 35.42710 21889 ft 399 kts 89°
2026-05-05 09:37 55.91016 35.47571 21236 ft 395 kts 90°
2026-05-05 09:37 55.91071 35.52435 20606 ft 391 kts 90°
2026-05-05 09:38 55.91122 35.57259 19998 ft 388 kts 90°
2026-05-05 09:38 55.91169 35.62040 19557 ft 384 kts 90°
2026-05-05 09:38 55.91216 35.66777 19098 ft 380 kts 90°
2026-05-05 09:38 55.91264 35.71480 18870 ft 379 kts 90°
2026-05-05 09:39 55.91312 35.76173 18857 ft 379 kts 90°
2026-05-05 09:39 55.91359 35.80873 18865 ft 379 kts 90°
2026-05-05 09:39 55.91467 35.85581 18864 ft 380 kts 84°
2026-05-05 09:39 55.91827 35.90252 18866 ft 380 kts 82°
2026-05-05 09:40 55.92187 35.94901 18575 ft 377 kts 83°
2026-05-05 09:40 55.92534 35.99464 18113 ft 374 kts 83°
2026-05-05 09:40 55.92876 36.04045 17614 ft 372 kts 83°
2026-05-05 09:40 55.93225 36.08652 16897 ft 376 kts 81°
2026-05-05 09:41 55.93892 36.13027 16590 ft 358 kts 66°
2026-05-05 09:41 55.95114 36.16813 16176 ft 349 kts 49°
2026-05-05 09:41 55.96784 36.19887 15800 ft 341 kts 34°
2026-05-05 09:41 55.98762 36.22105 15396 ft 332 kts 20°
2026-05-05 09:42 56.00881 36.23661 14973 ft 328 kts 17°
2026-05-05 09:42 56.02998 36.25182 14588 ft 326 kts 17°
2026-05-05 09:42 56.05092 36.26695 14207 ft 324 kts 17°
2026-05-05 09:42 56.07181 36.28198 13895 ft 321 kts 16°
2026-05-05 09:43 56.09258 36.29684 13848 ft 322 kts 16°
2026-05-05 09:43 56.11331 36.31168 13612 ft 319 kts 16°
2026-05-05 09:43 56.13392 36.32641 13162 ft 318 kts 16°
2026-05-05 09:43 56.15442 36.34108 12859 ft 316 kts 17°
2026-05-05 09:44 56.17403 36.35971 12845 ft 323 kts 30°
2026-05-05 09:44 56.19186 36.38334 12563 ft 322 kts 32°
2026-05-05 09:44 56.20998 36.40770 12111 ft 321 kts 32°
2026-05-05 09:44 56.22779 36.43167 11680 ft 319 kts 32°
2026-05-05 09:45 56.24509 36.45662 11269 ft 320 kts 41°
2026-05-05 09:45 56.25870 36.48776 10903 ft 322 kts 58°
2026-05-05 09:45 56.26737 36.52483 10829 ft 323 kts 74°
2026-05-05 09:45 56.27316 36.56404 10837 ft 325 kts 74°
2026-05-05 09:46 56.27899 36.60317 10515 ft 323 kts 74°
2026-05-05 09:46 56.28482 36.64202 10116 ft 321 kts 74°
2026-05-05 09:46 56.29063 36.68068 9717 ft 319 kts 74°
2026-05-05 09:46 56.29639 36.71913 9277 ft 318 kts 74°
2026-05-05 09:47 56.30217 36.75739 8912 ft 314 kts 73°
2026-05-05 09:47 56.30794 36.79531 8970 ft 314 kts 73°
2026-05-05 09:47 56.31369 36.83293 8791 ft 304 kts 72°
2026-05-05 09:47 56.32194 36.86682 8454 ft 290 kts 54°
2026-05-05 09:48 56.33463 36.89441 8089 ft 283 kts 39°
2026-05-05 09:48 56.34880 36.91886 7714 ft 281 kts 39°
2026-05-05 09:48 56.36281 36.94330 7348 ft 280 kts 40°
2026-05-05 09:48 56.37672 36.96770 7023 ft 277 kts 40°
2026-05-05 09:49 56.39048 36.99193 6978 ft 277 kts 40°
2026-05-05 09:49 56.40408 37.01593 6979 ft 276 kts 41°
2026-05-05 09:49 56.41564 37.04306 6973 ft 272 kts 58°
2026-05-05 09:49 56.42449 37.07324 6982 ft 272 kts 59°
2026-05-05 09:50 56.43341 37.10373 6818 ft 271 kts 59°
2026-05-05 09:50 56.44211 37.13336 6482 ft 270 kts 59°
2026-05-05 09:50 56.45091 37.16331 6178 ft 268 kts 59°
2026-05-05 09:50 56.45921 37.19329 5867 ft 266 kts 67°
2026-05-05 09:51 56.46363 37.22563 5555 ft 265 kts 84°
2026-05-05 09:51 56.46356 37.25884 5264 ft 263 kts 95°
2026-05-05 09:51 56.46260 37.29165 4985 ft 260 kts 94°
2026-05-05 09:51 56.46170 37.32422 4689 ft 259 kts 95°
2026-05-05 09:52 56.46083 37.35657 4392 ft 256 kts 94°
2026-05-05 09:52 56.45995 37.38861 4099 ft 253 kts 97°
2026-05-05 09:52 56.45644 37.41935 3851 ft 248 kts 112°
2026-05-05 09:52 56.44891 37.44706 3503 ft 244 kts 127°
2026-05-05 09:53 56.43942 37.47171 3344 ft 232 kts 128°
2026-05-05 09:53 56.43048 37.49517 3137 ft 222 kts 128°
2026-05-05 09:53 56.42183 37.51786 3016 ft 216 kts 130°
2026-05-05 09:53 56.41134 37.53629 2974 ft 207 kts 153°
2026-05-05 09:54 56.39826 37.54579 2973 ft 201 kts 176°
2026-05-05 09:54 56.38475 37.54614 2981 ft 194 kts 196°
2026-05-05 09:54 56.37207 37.53793 2985 ft 198 kts 214°
2026-05-05 09:54 56.36153 37.52155 2977 ft 202 kts 232°
2026-05-05 09:55 56.35234 37.50186 2985 ft 206 kts 231°
2026-05-05 09:55 56.34319 37.48250 2978 ft 197 kts 231°
2026-05-05 09:55 56.33460 37.46446 2978 ft 185 kts 231°
2026-05-05 09:55 56.32618 37.44683 2987 ft 185 kts 232°
2026-05-05 09:56 56.31783 37.42934 2984 ft 183 kts 231°
2026-05-05 09:56 56.30950 37.41195 2989 ft 183 kts 230°
2026-05-05 09:56 56.30086 37.39386 2991 ft 200 kts 230°
2026-05-05 09:56 56.29163 37.37453 2984 ft 205 kts 230°
2026-05-05 09:57 56.28233 37.35506 2988 ft 206 kts 230°
2026-05-05 09:57 56.27313 37.33581 2989 ft 201 kts 231°
2026-05-05 09:57 56.26376 37.31698 2988 ft 205 kts 223°
2026-05-05 09:57 56.25144 37.30394 2989 ft 210 kts 201°
2026-05-05 09:58 56.23685 37.30076 2993 ft 215 kts 178°
2026-05-05 09:58 56.22209 37.30695 2998 ft 220 kts 169°
2026-05-05 09:58 56.20731 37.31437 2998 ft 221 kts 170°
2026-05-05 09:58 56.19244 37.32178 2999 ft 222 kts 170°
2026-05-05 09:59 56.17821 37.33270 3002 ft 229 kts 147°
2026-05-05 09:59 56.16845 37.35547 2992 ft 236 kts 113°
2026-05-05 09:59 56.16699 37.38491 3003 ft 243 kts 79°
2026-05-05 09:59 56.17131 37.41383 3002 ft 245 kts 75°
2026-05-05 10:00 56.17586 37.44330 2997 ft 244 kts 76°
2026-05-05 10:00 56.18032 37.47257 3000 ft 242 kts 75°
2026-05-05 10:00 56.18475 37.50197 2992 ft 246 kts 76°
2026-05-05 10:00 56.18923 37.53173 3002 ft 247 kts 75°
2026-05-05 10:01 56.19187 37.56123 2994 ft 232 kts 92°
2026-05-05 10:01 56.18942 37.58876 2990 ft 218 kts 112°
2026-05-05 10:01 56.18274 37.61285 3005 ft 214 kts 130°
2026-05-05 10:01 56.17293 37.63252 3000 ft 211 kts 141°
2026-05-05 10:02 56.16259 37.65130 2999 ft 211 kts 142°
2026-05-05 10:02 56.15245 37.66979 3019 ft 200 kts 142°
2026-05-05 10:02 56.14288 37.68731 2998 ft 193 kts 142°
2026-05-05 10:02 56.13385 37.70386 3008 ft 176 kts 139°
2026-05-05 10:03 56.12572 37.71887 3000 ft 161 kts 140°
2026-05-05 10:03 56.11825 37.73270 2998 ft 150 kts 139°
2026-05-05 10:03 56.11113 37.74579 3028 ft 143 kts 145°
2026-05-05 10:03 56.10422 37.75801 3010 ft 136 kts 152°
2026-05-05 10:04 56.09914 37.76402 3005 ft 129 kts 160°
2026-05-05 10:04 56.09097 37.76934 3000 ft 123 kts 175°
2026-05-05 10:04 56.08259 37.77056 3001 ft 119 kts 189°
2026-05-05 10:04 56.07457 37.76793 3012 ft 115 kts 204°
2026-05-05 10:05 56.06708 37.76357 3002 ft 113 kts 204°
2026-05-05 10:05 56.05952 37.75923 3001 ft 115 kts 205°
2026-05-05 10:05 56.05194 37.75491 2997 ft 112 kts 206°
2026-05-05 10:05 56.04457 37.75072 2753 ft 114 kts 204°
2026-05-05 10:06 56.03693 37.74633 2539 ft 115 kts 203°
2026-05-05 10:06 56.02924 37.74182 2517 ft 117 kts 206°
2026-05-05 10:06 56.02250 37.73415 2515 ft 114 kts 226°
2026-05-05 10:06 56.01766 37.72310 2504 ft 113 kts 242°
2026-05-05 10:07 56.01504 37.71001 2495 ft 112 kts 255°
2026-05-05 10:07 56.01301 37.69645 2508 ft 112 kts 255°
2026-05-05 10:07 56.01101 37.68304 2494 ft 113 kts 253°
2026-05-05 10:07 56.00899 37.66941 2494 ft 113 kts 254°
2026-05-05 10:08 56.00698 37.65575 2504 ft 114 kts 254°
2026-05-05 10:08 56.00496 37.64204 2509 ft 114 kts 254°
2026-05-05 10:08 56.00297 37.62848 2520 ft 112 kts 255°
2026-05-05 10:08 56.00100 37.61511 2460 ft 110 kts 255°
2026-05-05 10:09 55.99906 37.60193 2363 ft 109 kts 255°
2026-05-05 10:09 55.99713 37.58884 2245 ft 111 kts 254°
2026-05-05 10:09 55.99514 37.57536 2111 ft 113 kts 253°
2026-05-05 10:09 55.99315 37.56181 1969 ft 113 kts 253°
2026-05-05 10:10 55.99115 37.54828 1824 ft 113 kts 253°
2026-05-05 10:10 55.98919 37.53504 1683 ft 111 kts 254°
2026-05-05 10:10 55.98722 37.52168 1519 ft 114 kts 254°
2026-05-05 10:10 55.98519 37.50797 1391 ft 114 kts 254°
2026-05-05 10:11 55.98311 37.49395 1230 ft 124 kts 253°
2026-05-05 10:11 55.98095 37.47933 1068 ft 121 kts 256°
2026-05-05 10:11 55.97878 37.46459 946 ft 121 kts 255°
2026-05-05 10:11 55.97665 37.44994 743 ft 122 kts 255°
2026-05-05 10:12 55.97461 37.43562 640 ft 110 kts 253°
2026-05-05 10:12 55.97315 37.42698 642 ft 42 kts 256°
2026-05-05 10:12 55.97272 37.42386 645 ft 13 kts 257°
2026-05-05 10:12 55.97260 37.42290 641 ft 9 kts 257°
2026-05-05 10:13 55.97242 37.42155 643 ft 14 kts 257°
2026-05-05 10:13 55.97217 37.41957 638 ft 19 kts 257°
2026-05-05 10:13 55.97183 37.41701 644 ft 24 kts 255°
2026-05-05 10:13 55.97153 37.41443 640 ft 20 kts 272°
2026-05-05 10:14 55.97232 37.41313 640 ft 9 kts 345°
2026-05-05 10:14 55.97296 37.41284 640 ft 9 kts 345°
2026-05-05 10:14 55.97353 37.41257 641 ft 8 kts 345°
2026-05-05 10:14 55.97412 37.41229 640 ft 9 kts 345°
2026-05-05 10:15 55.97479 37.41198 642 ft 11 kts 345°
2026-05-05 10:15 55.97552 37.41164 639 ft 11 kts 345°
2026-05-05 10:15 55.97608 37.41138 642 ft 5 kts 346°
2026-05-05 10:15 55.97615 37.41135 643 ft 1 kts 347°
2026-05-05 10:16 55.97622 37.41132 639 ft 2 kts 348°
2026-05-05 10:16 55.97636 37.41128 639 ft 2 kts 351°
2026-05-05 10:16 55.97652 37.41124 642 ft 0 kts 352°
2026-05-05 10:16 55.97658 37.41123 642 ft 1 kts 354°
2026-05-05 10:17 55.97671 37.41121 643 ft 2 kts 354°
2026-05-05 10:17 55.97691 37.41117 641 ft 3 kts 354°
2026-05-05 10:17 55.97713 37.41113 644 ft 0 kts 354°